CW5066 Weather Reports


time (UTC)temp
F
wind
direction
speed
knots
gust
knots
rain 1hr
in
rain 24hr
in
rain mn
in
humidity
%
barometer
mb
20260901154516 55 203 3.5 7.8 0.00 0.16 0.00 66 1026.4
20260901153517 53 225 1.7 4.3 0.00 0.16 0.00 72 1026.2
20260901152516 52 248 2.6 6.1 0.00 0.16 0.00 72 1025.5
20260901151516 52 225 3.5 7.8 0.00 0.16 0.00 70 1025.4
20260901150516 52 225 5.2 8.7 0.00 0.16 0.00 71 1025.2
20260901145516 52 225 3.5 9.6 0.00 0.16 0.00 73 1025.3
20260901144516 51 248 2.6 4.3 0.00 0.16 0.00 75 1025.4
20260901143516 51 225 2.6 5.2 0.00 0.16 0.00 74 1025.5
20260901142556 51 270 2.6 6.1 0.00 0.16 0.00 74 1025.4
20260901141516 51 248 3.5 7.8 0.00 0.16 0.00 74 1025.5
20260901140516 51 270 4.3 7.8 0.00 0.16 0.00 74 1026.1
20260901135516 51 248 3.5 7.8 0.00 0.16 0.00 74 1026.0
20260901134516 52 248 4.3 8.7 0.00 0.16 0.00 73 1026.4
20260901133516 51 248 3.5 9.6 0.00 0.16 0.00 73 1025.6
20260901132516 51 225 3.5 7.0 0.00 0.16 0.00 74 1025.3
20260901131516 51 248 3.5 7.8 0.00 0.16 0.00 75 1025.2
20260901130516 50 248 2.6 7.0 0.00 0.16 0.00 75 1025.0
20260901125516 50 248 2.6 7.0 0.00 0.16 0.00 75 1024.8
20260901124516 50 248 2.6 3.5 0.00 0.16 0.00 74 1024.7
20260901123516 51 203 4.3 6.1 0.00 0.16 0.00 72 1024.3
20260901122536 52 225 2.6 4.3 0.00 0.16 0.00 73 1024.9
20260901121536 52 248 1.7 4.3 0.00 0.16 0.00 70 1024.7
20260901120515 51 158 0.9 2.6 0.00 0.16 0.00 75 1026.0
20260901115515 51 203 0.9 1.7 0.00 0.16 0.00 76 1025.8
20260901114515 51 180 1.7 2.6 0.00 0.16 0.00 76 1025.8
20260901113515 51 203 0.9 2.6 0.00 0.16 0.00 76 1027.7
20260901112516 51 180 0.9 2.6 0.00 0.16 0.00 76 1027.7
20260901111516 51 0.0 1.7 0.00 0.16 0.00 77 1027.7
20260901110535 50 0.0 0.9 0.00 0.16 0.00 78 1027.1
20260901105516 50 225 0.9 1.7 0.00 0.16 0.00 79 1027.1
20260901104516 50 0.0 1.7 0.00 0.16 0.00 81 1027.0
20260901103516 50 0.0 0.9 0.00 0.16 0.00 81 1027.6
20260901102515 50 0.0 1.7 0.00 0.16 0.00 82 1027.7
20260901101516 50 0.0 0.0 0.00 0.16 0.00 84 1027.8
20260901100516 50 180 1.7 2.6 0.00 0.16 0.00 81 1027.9
20260901095515 50 180 0.9 2.6 0.00 0.16 0.00 81 1028.1
20260901094515 50 158 1.7 2.6 0.00 0.16 0.00 81 1028.2
20260901093515 49 135 0.9 1.7 0.00 0.16 0.00 82 1028.0
20260901092515 49 45 0.9 0.9 0.00 0.16 0.00 85 1028.1
20260901091515 49 0.0 0.0 0.00 0.16 0.00 85 1028.2
20260901090517 49 23 0.9 1.7 0.00 0.16 0.00 87 1028.1
20260901085537 49 23 0.9 0.9 0.00 0.16 0.00 89 1028.3
20260901084517 49 0.0 0.9 0.00 0.16 0.00 89 1027.7
20260901083517 49 0.0 0.9 0.00 0.16 0.00 89 1027.7
20260901082517 49 0.0 1.7 0.00 0.16 0.00 89 1028.3
20260901081517 49 23 0.9 1.7 0.00 0.16 0.00 88 1028.4
20260901080517 49 0.0 0.0 0.00 0.16 0.00 87 1028.4
20260901075537 50 0.0 1.7 0.00 0.16 0.00 87 1028.4
20260901074517 50 158 1.7 2.6 0.00 0.16 0.00 86 1029.2
20260901073517 50 135 0.9 1.7 0.00 0.16 0.00 86 1028.8
20260901072517 50 135 0.9 1.7 0.00 0.16 0.00 86 1028.7
20260901071517 50 0.0 0.9 0.00 0.16 0.00 85 1028.9
20260901070517 50 113 0.9 1.7 0.00 0.16 0.00 85 1028.8
20260901065517 50 0.0 1.7 0.00 0.16 0.00 86 1028.8
20260901064537 50 113 0.9 2.6 0.00 0.16 0.00 85 1028.9
20260901063517 50 0.0 1.7 0.00 0.16 0.00 83 1028.2
20260901062517 50 135 0.9 1.7 0.00 0.16 0.00 84 1028.1
20260901061516 50 0.0 1.7 0.00 0.16 0.00 83 1028.2
20260901060516 50 0.0 1.7 0.00 0.16 0.00 85 1028.2
20260901055515 50 135 0.9 3.5 0.00 0.16 0.16 85 1028.4
20260901054516 50 158 0.9 1.7 0.00 0.16 0.16 86 1028.6
20260901053515 50 158 0.9 1.7 0.00 0.16 0.16 86 1027.8
20260901052536 49 0.0 1.7 0.00 0.16 0.16 87 1028.0
20260901051515 49 203 0.9 2.6 0.00 0.16 0.16 87 1027.9
20260901050515 50 180 0.9 1.7 0.00 0.16 0.16 87 1028.2
20260901045515 49 158 0.9 1.7 0.00 0.16 0.16 87 1028.2
20260901044515 49 0.0 0.9 0.00 0.16 0.16 88 1028.2
20260901043517 49 0.0 1.7 0.00 0.16 0.16 88 1027.6
20260901042517 49 0.0 1.7 0.00 0.16 0.16 90 1027.7
20260901041517 49 338 0.9 2.6 0.00 0.16 0.16 92 1027.6
20260901040517 49 0.0 1.7 0.00 0.16 0.16 92 1027.6
20260901035517 49 45 0.9 3.5 0.01 0.16 0.16 92 1027.5
20260901034517 49 23 2.6 7.0 0.01 0.16 0.16 92 1027.4
20260901033537 49 23 3.5 7.8 0.02 0.16 0.16 92 1026.4
20260901032537 49 23 3.5 6.1 0.04 0.16 0.16 91 1026.6
20260901031517 49 0 1.7 3.5 0.06 0.16 0.16 91 1027.4
20260901030557 49 225 0.9 2.6 0.08 0.16 0.16 92 1027.3
20260901025537 49 248 1.7 3.5 0.10 0.15 0.15 93 1027.2
20260901024517 49 225 0.9 1.7 0.10 0.15 0.15 93 1027.3
20260901023517 49 225 2.6 4.3 0.09 0.14 0.14 93 1027.4
20260901022537 50 225 1.7 3.5 0.07 0.12 0.12 93 1027.8
20260901021517 50 225 1.7 4.3 0.05 0.10 0.10 92 1027.7
20260901020537 50 203 3.5 7.8 0.03 0.08 0.08 90 1027.0
20260901015517 51 180 6.1 10.4 0.00 0.05 0.05 86 1027.3
20260901014516 52 90 0.9 2.6 0.00 0.05 0.05 83 1026.6
20260901013516 52 45 1.7 3.5 0.00 0.05 0.05 84 1026.4
20260901012537 52 45 1.7 4.3 0.00 0.05 0.05 83 1026.5
20260901011516 52 23 2.6 5.2 0.00 0.05 0.05 83 1026.4
20260901010516 53 23 2.6 7.0 0.00 0.05 0.05 84 1026.4
20260901005516 53 45 1.7 3.5 0.03 0.05 0.05 84 1026.5
20260901004537 53 23 0.9 2.6 0.05 0.05 0.05 85 1026.8
20260901003516 53 338 0.9 3.5 0.05 0.05 0.05 84 1027.0
20260901002517 53 0 1.7 2.6 0.05 0.05 0.05 86 1027.1
20260901001517 53 0 0.9 2.6 0.05 0.05 0.05 84 1027.3
20260901000516 52 338 2.6 7.0 0.05 0.05 0.05 81 1026.8
20260831235516 54 225 3.5 7.0 0.02 0.02 0.02 78 1027.8
20260831234516 56 270 4.3 10.4 0.00 0.00 0.00 68 1027.6
20260831233536 60 270 3.5 8.7 0.00 0.00 0.00 58 1028.8
20260831232516 62 23 0.9 2.6 0.00 0.00 0.00 52 1028.9
20260831231536 63 23 0.9 2.6 0.00 0.00 0.00 51 1028.7
20260831230537 63 23 0.9 2.6 0.00 0.00 0.00 50 1028.7
20260831225516 63 0.0 1.7 0.00 0.00 0.00 50 1029.0
20260831224516 63 0.0 1.7 0.00 0.00 0.00 50 1029.1
20260831223516 64 90 0.9 2.6 0.00 0.00 0.00 49 1029.1
20260831222516 64 68 1.7 4.3 0.00 0.00 0.00 48 1029.1
20260831221516 64 23 0.9 3.5 0.00 0.00 0.00 47 1029.1
20260831220536 63 23 0.9 5.2 0.00 0.00 0.00 49 1029.2
20260831215516 63 0 1.7 5.2 0.00 0.00 0.00 46 1029.1
20260831214516 64 315 1.7 3.5 0.00 0.00 0.00 45 1029.8
20260831213516 65 90 0.9 5.2 0.00 0.00 0.00 46 1030.0
20260831212536 64 158 0.9 5.2 0.00 0.00 0.00 47 1029.9
20260831211536 64 113 0.9 4.3 0.00 0.00 0.00 46 1030.0
20260831210516 66 158 2.6 8.7 0.00 0.00 0.00 45 1030.2
20260831205516 66 90 1.7 7.8 0.00 0.00 0.00 46 1030.9
20260831204516 65 113 4.3 12.2 0.00 0.00 0.00 45 1030.2
20260831203536 65 113 3.5 9.6 0.00 0.00 0.00 45 1030.3
20260831202516 64 158 3.5 9.6 0.00 0.00 0.00 43 1030.6
20260831201516 65 158 3.5 7.0 0.00 0.00 0.00 44 1030.7
20260831200516 66 113 6.1 10.4 0.00 0.04 0.00 41 1031.4
20260831195516 68 180 3.5 7.8 0.00 0.07 0.00 39 1032.2
20260831194516 67 0.0 1.7 0.00 0.08 0.00 38 1031.7
20260831193516 66 158 3.5 10.4 0.00 0.08 0.00 39 1031.1
20260831192516 65 180 1.7 7.0 0.00 0.08 0.00 39 1031.2
20260831191515 65 180 3.5 8.7 0.00 0.08 0.00 40 1030.8
20260831190515 65 113 1.7 7.8 0.00 0.08 0.00 41 1031.6
20260831185536 65 90 0.9 3.5 0.00 0.08 0.00 41 1031.7
20260831184536 65 158 0.9 6.1 0.00 0.08 0.00 39 1031.6
20260831183516 65 113 0.9 4.3 0.00 0.08 0.00 39 1031.8
20260831182516 64 113 0.9 2.6 0.00 0.08 0.00 41 1031.2
20260831181515 63 158 2.6 6.1 0.00 0.08 0.00 42 1031.2
20260831180556 63 135 1.7 5.2 0.00 0.08 0.00 43 1031.3
20260831175515 63 135 1.7 7.0 0.00 0.08 0.00 41 1031.3
20260831174515 63 113 0.9 2.6 0.00 0.08 0.00 45 1031.4
20260831173535 63 113 1.7 6.1 0.00 0.08 0.00 42 1031.3
20260831172515 63 225 1.7 4.3 0.00 0.08 0.00 43 1031.4
20260831171515 62 113 0.9 3.5 0.00 0.08 0.00 42 1030.8
20260831170515 62 225 1.7 6.1 0.00 0.08 0.00 41 1031.3
20260831165515 62 338 1.7 3.5 0.00 0.08 0.00 44 1031.4
20260831164555 62 248 0.9 2.6 0.00 0.08 0.00 44 1031.2
20260831163535 61 180 1.7 4.3 0.00 0.08 0.00 43 1031.7
20260831162517 61 225 1.7 3.5 0.00 0.08 0.00 45 1031.8
20260831161517 60 203 2.6 6.1 0.00 0.08 0.00 47 1031.1
20260831160517 60 158 1.7 5.2 0.00 0.08 0.00 49 1030.9
20260831155517 60 180 1.7 3.5 0.00 0.08 0.00 48 1030.9